JFA1464 LFCY-LFPB

Flight info

Callsign JFA1464
Flight time 0h 53m
Altitude 34000
Route KOVAK
Aircraft PC24/M-SBDGIRWY/LB2

Departure

Time 2026-04-21 20:38
Airport Royan-Médis Airport (LFCY)

Arrival

Time 2026-04-21 21:31
Airport Paris-Le Bourget International Airport (LFPB)
Time Latitude Longitude Altitude Speed Heading
2026-04-21 20:19 45.63301 -0.97411 56 ft 0 kts
2026-04-21 20:33 45.63302 -0.97411 62 ft 0 kts
2026-04-21 20:33 45.63321 -0.97427 59 ft 4 kts 295°
2026-04-21 20:34 45.63325 -0.97464 62 ft 4 kts 264°
2026-04-21 20:34 45.63315 -0.97488 58 ft 1 kts 216°
2026-04-21 20:34 45.63295 -0.97498 62 ft 6 kts 192°
2026-04-21 20:34 45.63231 -0.97517 62 ft 12 kts 190°
2026-04-21 20:35 45.63195 -0.97526 59 ft 0 kts 190°
2026-04-21 20:35 45.63189 -0.97527 60 ft 3 kts 190°
2026-04-21 20:36 45.63140 -0.97543 59 ft 10 kts 204°
2026-04-21 20:36 45.63133 -0.97669 59 ft 18 kts 281°
2026-04-21 20:36 45.63161 -0.97874 57 ft 19 kts 281°
2026-04-21 20:36 45.63168 -0.97998 59 ft 11 kts 38°
2026-04-21 20:37 45.63173 -0.97961 61 ft 0 kts 101°
2026-04-21 20:37 45.63139 -0.97718 62 ft 65 kts 101°
2026-04-21 20:38 45.63014 -0.96709 127 ft 136 kts 95°
2026-04-21 20:38 45.62822 -0.95284 746 ft 151 kts 96°
2026-04-21 20:38 45.62838 -0.93818 1241 ft 156 kts 64°
2026-04-21 20:38 45.63254 -0.92522 2633 ft 139 kts 78°
2026-04-21 20:39 45.63396 -0.91040 3266 ft 166 kts 87°
2026-04-21 20:39 45.63492 -0.89258 3894 ft 192 kts 88°
2026-04-21 20:39 45.63581 -0.87293 4766 ft 202 kts 88°
2026-04-21 20:39 45.63667 -0.85250 5619 ft 214 kts 87°
2026-04-21 20:40 45.63764 -0.83074 6542 ft 222 kts 86°
2026-04-21 20:40 45.63861 -0.80867 7423 ft 228 kts 87°
2026-04-21 20:40 45.63962 -0.78574 8352 ft 234 kts 87°
2026-04-21 20:40 45.64067 -0.76225 9293 ft 240 kts 87°
2026-04-21 20:41 45.64174 -0.73812 10212 ft 243 kts 87°
2026-04-21 20:41 45.64360 -0.71399 10988 ft 252 kts 71°
2026-04-21 20:41 45.65404 -0.69423 11837 ft 250 kts 32°
2026-04-21 20:41 45.66898 -0.68241 12779 ft 250 kts 25°
2026-04-21 20:42 45.68445 -0.67024 13662 ft 256 kts 26°
2026-04-21 20:42 45.70025 -0.65783 14491 ft 260 kts 25°
2026-04-21 20:42 45.71607 -0.64556 15355 ft 261 kts 25°
2026-04-21 20:42 45.73196 -0.63317 16205 ft 264 kts 25°
2026-04-21 20:43 45.74834 -0.62036 17072 ft 268 kts 26°
2026-04-21 20:43 45.76480 -0.60746 17954 ft 270 kts 25°
2026-04-21 20:43 45.78133 -0.59449 18730 ft 274 kts 25°
2026-04-21 20:43 45.79824 -0.58127 19470 ft 278 kts 25°
2026-04-21 20:44 45.81503 -0.56809 20273 ft 279 kts 25°
2026-04-21 20:44 45.83220 -0.55460 21056 ft 283 kts 25°
2026-04-21 20:44 45.84965 -0.54090 21836 ft 286 kts 25°
2026-04-21 20:44 45.86703 -0.52725 22626 ft 288 kts 24°
2026-04-21 20:45 45.88472 -0.51333 23373 ft 292 kts 25°
2026-04-21 20:45 45.90273 -0.49916 24036 ft 295 kts 25°
2026-04-21 20:45 45.92084 -0.48488 24675 ft 298 kts 24°
2026-04-21 20:45 45.93892 -0.47063 25299 ft 301 kts 24°
2026-04-21 20:46 45.95746 -0.45601 25936 ft 304 kts 24°
2026-04-21 20:46 45.97600 -0.44137 26561 ft 307 kts 24°
2026-04-21 20:46 45.99487 -0.42645 27189 ft 310 kts 24°
2026-04-21 20:46 46.01397 -0.41135 27782 ft 313 kts 24°
2026-04-21 20:47 46.03301 -0.39628 28348 ft 317 kts 24°
2026-04-21 20:47 46.05254 -0.38082 28920 ft 320 kts 24°
2026-04-21 20:47 46.07221 -0.36522 29478 ft 324 kts 23°
2026-04-21 20:47 46.09191 -0.34960 29941 ft 330 kts 23°
2026-04-21 20:48 46.13259 -0.31722 29947 ft 328 kts 23°
2026-04-21 20:48 46.17309 -0.28512 29991 ft 347 kts 24°
2026-04-21 20:49 46.19426 -0.26885 29974 ft 361 kts 19°
2026-04-21 20:49 46.21919 -0.25663 29976 ft 371 kts
2026-04-21 20:49 46.24480 -0.24758 29974 ft 385 kts
2026-04-21 20:49 46.27093 -0.23703 29985 ft 399 kts 13°
2026-04-21 20:50 46.29757 -0.22311 29978 ft 411 kts 16°
2026-04-21 20:50 46.32435 -0.20896 29982 ft 414 kts 14°
2026-04-21 20:50 46.37955 -0.18336 29984 ft 416 kts 13°
2026-04-21 20:51 46.43418 -0.15642 29995 ft 413 kts 14°
2026-04-21 20:51 46.48870 -0.13019 29991 ft 413 kts 14°
2026-04-21 20:52 46.54327 -0.10360 29999 ft 414 kts 14°
2026-04-21 20:52 46.58847 -0.08159 30012 ft 414 kts 14°
2026-04-21 20:53 46.65229 -0.05045 30021 ft 416 kts 14°
2026-04-21 20:53 46.70716 -0.02361 30016 ft 417 kts 14°
2026-04-21 20:54 46.75296 -0.00114 30030 ft 414 kts 14°
2026-04-21 20:54 46.80729 0.02554 30022 ft 412 kts 13°
2026-04-21 20:55 46.86277 0.05283 30023 ft 416 kts 14°
2026-04-21 20:55 46.91779 0.07995 30023 ft 415 kts 14°
2026-04-21 20:56 46.97195 0.10675 30035 ft 413 kts 14°
2026-04-21 20:56 47.02630 0.13367 30043 ft 411 kts 14°
2026-04-21 20:57 47.08089 0.16076 30046 ft 413 kts 14°
2026-04-21 20:57 47.13536 0.18787 30049 ft 414 kts 14°
2026-04-21 20:58 47.18955 0.21491 30058 ft 411 kts 13°
2026-04-21 20:58 47.24357 0.24189 30057 ft 408 kts 13°
2026-04-21 20:59 47.29747 0.26887 30062 ft 411 kts 13°
2026-04-21 20:59 47.35200 0.29626 30070 ft 409 kts 13°
2026-04-21 21:00 47.40555 0.32319 30075 ft 405 kts 13°
2026-04-21 21:00 47.45931 0.34978 30076 ft 404 kts
2026-04-21 21:01 47.48680 0.35290 30074 ft 393 kts 352°
2026-04-21 21:01 47.51372 0.34757 29666 ft 392 kts 345°
2026-04-21 21:01 47.54026 0.34025 29148 ft 381 kts 345°
2026-04-21 21:01 47.56593 0.33350 28656 ft 376 kts 346°
2026-04-21 21:02 47.59176 0.32733 28161 ft 373 kts 346°
2026-04-21 21:02 47.61739 0.32114 27671 ft 371 kts 346°
2026-04-21 21:02 47.64284 0.31471 27183 ft 369 kts 346°
2026-04-21 21:02 47.66805 0.30836 26700 ft 367 kts 346°
2026-04-21 21:03 47.69367 0.30724 26141 ft 374 kts
2026-04-21 21:03 47.71786 0.32237 25592 ft 384 kts 30°
2026-04-21 21:03 47.73806 0.34829 25129 ft 380 kts 36°
2026-04-21 21:03 47.75848 0.37313 24679 ft 378 kts 34°
2026-04-21 21:04 47.77869 0.39818 24264 ft 378 kts 36°
2026-04-21 21:04 47.79911 0.42410 24105 ft 372 kts 34°
2026-04-21 21:04 47.81868 0.44843 24107 ft 370 kts 34°
2026-04-21 21:04 47.83862 0.47295 24110 ft 373 kts 34°
2026-04-21 21:05 47.85862 0.49780 24105 ft 374 kts 34°
2026-04-21 21:05 47.87862 0.52284 24106 ft 374 kts 34°
2026-04-21 21:05 47.89863 0.54786 24107 ft 374 kts 34°
2026-04-21 21:05 47.91837 0.57244 24107 ft 374 kts 34°
2026-04-21 21:06 47.93868 0.59780 24106 ft 373 kts 34°
2026-04-21 21:06 47.95883 0.62303 23946 ft 377 kts 34°
2026-04-21 21:06 47.97889 0.64816 23450 ft 372 kts 34°
2026-04-21 21:06 47.99832 0.67260 22957 ft 365 kts 34°
2026-04-21 21:07 48.01771 0.69691 22484 ft 361 kts 34°
2026-04-21 21:07 48.03685 0.72093 22002 ft 357 kts 34°
2026-04-21 21:07 48.05582 0.74478 21543 ft 354 kts 34°
2026-04-21 21:07 48.07468 0.76852 21070 ft 353 kts 34°
2026-04-21 21:08 48.09327 0.79193 20608 ft 352 kts 35°
2026-04-21 21:08 48.11201 0.81558 20144 ft 349 kts 35°
2026-04-21 21:08 48.13038 0.83878 19687 ft 347 kts 35°
2026-04-21 21:08 48.14883 0.86212 19240 ft 343 kts 34°
2026-04-21 21:09 48.16693 0.88501 18786 ft 338 kts 34°
2026-04-21 21:09 48.18488 0.90774 18328 ft 333 kts 34°
2026-04-21 21:09 48.20238 0.92993 17864 ft 324 kts 34°
2026-04-21 21:09 48.21922 0.95129 17445 ft 318 kts 34°
2026-04-21 21:10 48.23610 0.97274 17038 ft 315 kts 34°
2026-04-21 21:10 48.25280 0.99394 16618 ft 313 kts 34°
2026-04-21 21:10 48.26923 1.01480 16211 ft 313 kts 35°
2026-04-21 21:10 48.28586 1.03597 15797 ft 313 kts 35°
2026-04-21 21:11 48.30246 1.05715 15386 ft 312 kts 35°
2026-04-21 21:11 48.31894 1.07813 14978 ft 310 kts 35°
2026-04-21 21:11 48.33514 1.09886 14576 ft 308 kts 35°
2026-04-21 21:11 48.35146 1.11969 14170 ft 306 kts 35°
2026-04-21 21:12 48.36771 1.14047 13746 ft 305 kts 36°
2026-04-21 21:12 48.38375 1.16098 13329 ft 301 kts 36°
2026-04-21 21:12 48.39967 1.18140 12939 ft 298 kts 36°
2026-04-21 21:12 48.41540 1.20155 12547 ft 295 kts 37°
2026-04-21 21:13 48.43081 1.22132 12162 ft 293 kts 37°
2026-04-21 21:13 48.44627 1.24116 11777 ft 289 kts 38°
2026-04-21 21:13 48.46144 1.26067 11390 ft 285 kts 38°
2026-04-21 21:13 48.47648 1.28002 11025 ft 281 kts 38°
2026-04-21 21:14 48.49120 1.29894 10658 ft 278 kts 40°
2026-04-21 21:14 48.50572 1.31765 10290 ft 276 kts 41°
2026-04-21 21:14 48.51708 1.33897 10203 ft 274 kts 58°
2026-04-21 21:14 48.52601 1.36468 10213 ft 276 kts 62°
2026-04-21 21:15 48.53575 1.38990 10175 ft 280 kts 55°
2026-04-21 21:15 48.54725 1.41371 9930 ft 278 kts 52°
2026-04-21 21:15 48.55902 1.43679 9666 ft 275 kts 52°
2026-04-21 21:15 48.57038 1.45981 9399 ft 273 kts 55°
2026-04-21 21:16 48.58083 1.48317 9162 ft 270 kts 56°
2026-04-21 21:16 48.59155 1.50626 9143 ft 268 kts 54°
2026-04-21 21:16 48.60247 1.52919 9145 ft 268 kts 54°
2026-04-21 21:16 48.61335 1.55214 9147 ft 269 kts 55°
2026-04-21 21:17 48.62421 1.57521 9142 ft 269 kts 55°
2026-04-21 21:17 48.63522 1.59862 8678 ft 273 kts 55°
2026-04-21 21:17 48.64603 1.62158 8162 ft 264 kts 56°
2026-04-21 21:17 48.65653 1.64389 7699 ft 257 kts 57°
2026-04-21 21:18 48.66674 1.66566 7373 ft 252 kts 57°
2026-04-21 21:18 48.67674 1.68697 7050 ft 250 kts 58°
2026-04-21 21:18 48.68682 1.70843 6730 ft 249 kts 58°
2026-04-21 21:18 48.69677 1.72971 6408 ft 247 kts 58°
2026-04-21 21:19 48.70660 1.75070 6142 ft 243 kts 58°
2026-04-21 21:19 48.71638 1.77167 5876 ft 244 kts 58°
2026-04-21 21:19 48.72618 1.79258 5629 ft 243 kts 58°
2026-04-21 21:19 48.73594 1.81350 5372 ft 242 kts 58°
2026-04-21 21:20 48.74236 1.82724 5203 ft 240 kts 58°
2026-04-21 21:20 48.75189 1.84772 4945 ft 230 kts 58°
2026-04-21 21:20 48.76083 1.86679 4677 ft 213 kts 58°
2026-04-21 21:20 48.76949 1.88469 4397 ft 208 kts 58°
2026-04-21 21:21 48.77792 1.90193 4131 ft 203 kts 58°
2026-04-21 21:21 48.78593 1.91926 3867 ft 200 kts 60°
2026-04-21 21:21 48.79381 1.93623 3603 ft 190 kts 59°
2026-04-21 21:21 48.80120 1.95214 3387 ft 181 kts 59°
2026-04-21 21:22 48.80832 1.96762 3168 ft 177 kts 60°
2026-04-21 21:22 48.81538 1.98298 2981 ft 178 kts 60°
2026-04-21 21:22 48.82241 1.99828 2979 ft 177 kts 60°
2026-04-21 21:22 48.82943 2.01357 2979 ft 178 kts 59°
2026-04-21 21:23 48.83656 2.02904 2980 ft 179 kts 59°
2026-04-21 21:23 48.84369 2.04459 2975 ft 178 kts 59°
2026-04-21 21:23 48.85077 2.05998 2974 ft 177 kts 59°
2026-04-21 21:23 48.85792 2.07551 2978 ft 182 kts 59°
2026-04-21 21:24 48.86516 2.09140 2985 ft 183 kts 59°
2026-04-21 21:24 48.87219 2.10662 2968 ft 170 kts 59°
2026-04-21 21:24 48.87929 2.11966 2960 ft 153 kts 53°
2026-04-21 21:24 48.88547 2.13203 2962 ft 144 kts 66°
2026-04-21 21:25 48.88974 2.14586 2967 ft 145 kts 69°
2026-04-21 21:25 48.89379 2.15996 2972 ft 146 kts 70°
2026-04-21 21:25 48.89774 2.17425 2975 ft 146 kts 71°
2026-04-21 21:25 48.90160 2.18862 2975 ft 147 kts 71°
2026-04-21 21:26 48.90545 2.20302 2982 ft 147 kts 70°
2026-04-21 21:26 48.90925 2.21721 2981 ft 144 kts 70°
2026-04-21 21:26 48.91299 2.23114 2881 ft 140 kts 70°
2026-04-21 21:26 48.91661 2.24461 2717 ft 135 kts 70°
2026-04-21 21:27 48.92012 2.25763 2531 ft 130 kts 70°
2026-04-21 21:27 48.92342 2.26992 2346 ft 120 kts 71°
2026-04-21 21:27 48.92637 2.28080 2188 ft 103 kts 72°
2026-04-21 21:27 48.92889 2.29013 2064 ft 91 kts 72°
2026-04-21 21:28 48.93125 2.29892 1945 ft 89 kts 71°
2026-04-21 21:28 48.93352 2.30739 1832 ft 85 kts 72°
2026-04-21 21:28 48.93815 2.32496 1576 ft 88 kts 71°
2026-04-21 21:29 48.94041 2.33414 1357 ft 98 kts 74°
2026-04-21 21:29 48.94274 2.34388 1246 ft 101 kts 68°
2026-04-21 21:29 48.94564 2.35354 1126 ft 103 kts 64°
2026-04-21 21:29 48.94858 2.36366 959 ft 107 kts 69°
2026-04-21 21:30 48.95126 2.37432 817 ft 107 kts 64°
2026-04-21 21:30 48.95415 2.38413 813 ft 97 kts 64°
2026-04-21 21:30 48.95658 2.39406 598 ft 105 kts 68°
2026-04-21 21:30 48.95923 2.40446 486 ft 103 kts 63°
2026-04-21 21:31 48.96229 2.41423 420 ft 109 kts 65°
2026-04-21 21:31 48.96523 2.42517 210 ft 112 kts 66°
2026-04-21 21:31 48.96780 2.43488 176 ft 87 kts 68°
2026-04-21 21:31 48.96937 2.44097 198 ft 33 kts 67°
2026-04-21 21:32 48.96920 2.44313 192 ft 19 kts 126°
2026-04-21 21:32 48.96853 2.44397 191 ft 9 kts 159°
2026-04-21 21:32 48.96788 2.44422 195 ft 11 kts 166°
2026-04-21 21:32 48.96698 2.44464 180 ft 17 kts 162°
2026-04-21 21:33 48.96579 2.44520 177 ft 18 kts 166°
2026-04-21 21:33 48.96455 2.44545 174 ft 19 kts 176°
2026-04-21 21:33 48.96342 2.44572 167 ft 10 kts 100°
2026-04-21 21:33 48.96338 2.44656 167 ft 7 kts 97°
2026-04-21 21:34 48.96334 2.44692 169 ft 0 kts 98°
2026-04-21 21:34 48.96330 2.44746 168 ft 9 kts 96°
2026-04-21 21:34 48.96320 2.44769 167 ft 0 kts 168°